Stations météo

réclame
Mon MeteoGroup
Landsort, Suède (2582): Température de l'air & dewpoint: 16.10.2017 17:00:00 - 22.10.2017 17:00:00 (CEST)Landsort, Suède (2582): Vitesse du vent & gusts: 16.10.2017 17:00:00 - 22.10.2017 17:00:00 (CEST)Landsort, Suède (2582): Direction du vent: 16.10.2017 17:00:00 - 22.10.2017 17:00:00 (CEST)Landsort, Suède (2582): reduced air pressure: 16.10.2017 17:00:00 - 22.10.2017 17:00:00 (CEST)Landsort, Suède (2582): visibility: 16.10.2017 17:00:00 - 22.10.2017 17:00:00 (CEST)Landsort, Suède (2582): Quantités de précipitations: 16.10.2017 17:00:00 - 22.10.2017 17:00:00 (CEST)
Date & Time tt [°C] td [°C] ff [km/h] ff [knt] fx [km/h] fx [knt] dd ppp [hPa] vv [km] rr [mm]
22.10.2017 17:00:00 - - - - - - - - - -
22.10.2017 16:00:00 8,4 3,2 34 19 44 24 E 1017,0 50 0,0
22.10.2017 15:00:00 8,4 3,0 34 18 44 24 ESE 1017,2 46 0,0
22.10.2017 14:00:00 8,4 2,6 36 19 44 24 ESE 1017,5 44 0,0
22.10.2017 13:00:00 8,6 2,2 36 19 48 26 ESE 1017,9 44 0,0
22.10.2017 12:00:00 8,4 3,4 37 20 48 26 ESE 1018,1 50 0,0
22.10.2017 11:00:00 8,5 3,1 37 20 46 25 ESE 1017,9 50 0,0
22.10.2017 10:00:00 8,4 3,4 31 17 40 22 SE 1018,5 50 0,0
22.10.2017 09:00:00 8,3 3,1 32 17 42 23 ESE 1018,8 50 0,0
22.10.2017 08:00:00 8,3 2,3 34 18 42 23 ESE 1018,4 50 0,0
22.10.2017 07:00:00 8,3 3,7 31 17 39 21 SE 1018,5 50 0,0
22.10.2017 06:00:00 8,2 3,6 27 15 - - ESE 1018,9 50 0,0
22.10.2017 05:00:00 8,4 2,6 25 14 37 20 SE 1019,3 50 0,0
22.10.2017 04:00:00 8,6 3,4 28 15 37 20 SE 1019,7 50 0,0
22.10.2017 03:00:00 8,8 3,2 26 14 38 21 SE 1020,2 50 0,0
22.10.2017 02:00:00 8,8 3,2 29 15 41 22 SE 1020,6 50 0,0
22.10.2017 01:00:00 8,8 3,2 31 17 44 24 SE 1021,0 50 0,0
22.10.2017 00:00:00 8,8 3,6 33 18 45 24 SE 1021,0 50 0,0
21.10.2017 23:00:00 8,6 3,8 35 19 45 24 ESE 1021,3 50 0,0
21.10.2017 22:00:00 8,8 3,2 35 19 45 25 SE 1021,3 50 0,0
21.10.2017 21:00:00 8,9 3,3 34 19 45 25 ESE 1021,3 50 0,0
21.10.2017 20:00:00 8,9 2,7 34 18 42 23 ESE 1021,6 50 0,0
21.10.2017 19:00:00 8,7 3,1 30 16 42 23 ESE 1021,7 50 0,0
21.10.2017 18:00:00 8,7 2,7 34 18 44 24 E 1021,4 45 0,0
21.10.2017 17:00:00 8,9 3,1 31 17 44 24 E 1021,6 45 0,0
21.10.2017 16:00:00 9,0 2,6 30 16 44 24 E 1021,7 47 0,0
21.10.2017 15:00:00 9,3 3,7 35 19 44 24 E 1021,6 37 0,0
21.10.2017 14:00:00 9,5 4,1 35 19 48 26 E 1021,8 39 0,0
21.10.2017 13:00:00 9,5 3,0 36 20 50 27 E 1021,8 35 0,0
21.10.2017 12:00:00 9,8 4,2 40 22 50 27 E 1021,6 36 0,0
21.10.2017 11:00:00 9,9 4,3 40 21 49 27 E 1021,7 41 0,0
21.10.2017 10:00:00 9,9 4,5 38 21 48 26 E 1021,3 37 0,0
21.10.2017 09:00:00 9,8 5,4 39 21 48 26 E 1021,1 32 0,0
21.10.2017 08:00:00 9,6 5,6 40 22 48 26 E 1020,9 36 0,0
21.10.2017 07:00:00 9,7 5,3 40 21 49 26 E 1020,5 37 0,0
21.10.2017 06:00:00 9,8 6,0 40 22 51 27 E 1020,6 47 0,0
21.10.2017 05:00:00 9,8 5,6 41 22 51 27 E 1020,5 36 0,0
21.10.2017 04:00:00 9,9 5,9 39 21 48 26 E 1020,8 43 0,0
21.10.2017 03:00:00 10,0 4,8 37 20 47 25 E 1021,0 50 0,0
21.10.2017 02:00:00 10,0 5,2 34 18 42 23 E 1021,1 50 0,0
21.10.2017 01:00:00 9,8 5,0 32 17 44 24 E 1021,3 43 0,0
21.10.2017 00:00:00 9,9 4,5 34 18 44 24 E 1021,3 48 0,0
20.10.2017 23:00:00 10,2 5,0 37 20 44 24 E 1021,3 50 0,0
20.10.2017 22:00:00 10,3 5,9 36 20 44 24 ESE 1021,4 50 0,0
20.10.2017 21:00:00 10,1 5,7 34 18 39 21 ESE 1021,6 50 0,0
20.10.2017 20:00:00 10,2 6,2 30 16 39 21 ESE 1021,5 50 0,0
20.10.2017 19:00:00 10,1 6,4 27 15 39 21 ESE 1021,4 50 0,0
20.10.2017 18:00:00 10,3 5,9 25 14 31 17 E 1021,2 50 0,0
20.10.2017 17:00:00 10,1 5,7 24 13 31 17 E 1021,3 50 0,0
20.10.2017 16:00:00 10,1 6,1 24 13 31 17 E 1021,4 50 0,0
20.10.2017 15:00:00 10,0 6,5 24 13 31 17 E 1021,4 50 0,0
20.10.2017 14:00:00 9,9 6,4 21 12 30 16 E 1021,7 50 0,0
20.10.2017 13:00:00 9,9 5,9 22 12 30 16 E 1021,8 50 0,0
20.10.2017 12:00:00 9,8 5,8 21 12 26 14 ESE 1022,1 50 0,0
20.10.2017 11:00:00 9,7 5,3 18 10 25 14 SE 1022,2 50 0,0
20.10.2017 10:00:00 9,5 4,9 16 9 26 14 ESE 1022,0 50 0,0
20.10.2017 09:00:00 9,4 4,4 19 10 26 14 SE 1021,4 50 0,0
20.10.2017 08:00:00 9,2 4,6 18 10 24 13 ESE 1021,4 50 0,0
20.10.2017 07:00:00 9,0 4,8 16 9 21 12 ESE 1021,4 50 0,0
20.10.2017 06:00:00 9,1 4,7 15 8 19 11 SE 1021,6 50 0,0
20.10.2017 05:00:00 9,2 4,4 15 8 19 11 SE 1021,7 50 0,0
20.10.2017 04:00:00 9,2 4,6 15 8 19 11 SE 1021,8 50 0,0
20.10.2017 03:00:00 9,0 4,6 13 7 20 11 SSE 1022,0 50 0,0
20.10.2017 02:00:00 9,0 5,0 13 7 22 12 SE 1022,1 50 0,0
20.10.2017 01:00:00 8,8 5,0 15 8 22 12 SE 1022,1 50 0,0
20.10.2017 00:00:00 8,8 4,8 14 8 19 10 SE 1022,0 50 0,0
19.10.2017 23:00:00 8,8 4,4 14 8 18 10 SE 1022,2 50 0,0
19.10.2017 22:00:00 8,7 4,5 13 7 18 10 ESE 1022,0 50 0,0
19.10.2017 21:00:00 7,7 4,6 0 0 14 8 N 1022,0 50 0,0
19.10.2017 20:00:00 8,7 3,3 9 5 14 8 NNE 1021,9 50 0,0
19.10.2017 19:00:00 8,5 3,5 5 3 6 3 N 1021,7 50 0,0
19.10.2017 18:00:00 8,2 4,0 0 0 10 5 N 1021,8 50 0,0
19.10.2017 17:00:00 9,2 4,2 6 3 10 6 W 1021,5 50 0,0
19.10.2017 16:00:00 9,7 4,1 6 3 14 7 W 1021,4 49 0,0
19.10.2017 15:00:00 9,3 3,5 8 4 14 7 NW 1021,4 50 0,0
19.10.2017 14:00:00 9,5 4,1 9 5 14 7 WNW 1021,3 41 0,0
19.10.2017 13:00:00 8,9 3,9 4 2 14 8 NE 1021,3 49 0,0
19.10.2017 12:00:00 8,5 4,7 9 5 15 8 NW 1021,1 45 0,0
19.10.2017 11:00:00 8,1 3,6 8 4 21 11 NNE 1020,9 42 0,0
19.10.2017 10:00:00 7,0 3,4 10 6 22 12 N 1020,6 50 0,0
19.10.2017 09:00:00 6,4 4,1 14 8 22 12 NNW 1020,2 50 0,0
19.10.2017 08:00:00 6,2 4,2 16 9 22 12 NNW 1019,6 50 0,0
19.10.2017 07:00:00 6,2 3,7 15 8 20 11 NNW 1019,1 50 0,0
19.10.2017 06:00:00 6,3 4,0 11 6 20 11 NNW 1018,9 50 0,0
19.10.2017 05:00:00 6,4 4,6 12 6 17 9 NNW 1018,6 50 0,0
19.10.2017 04:00:00 6,9 4,2 11 6 20 11 NW 1018,4 50 0,0
19.10.2017 03:00:00 7,6 4,2 9 5 22 12 NW 1018,1 50 0,0
19.10.2017 02:00:00 8,1 4,7 13 7 32 17 WNW 1017,8 50 0,0
19.10.2017 01:00:00 8,2 4,6 10 6 39 21 WNW 1017,6 50 0,0
19.10.2017 00:00:00 8,3 3,9 21 11 39 21 N 1016,9 50 0,0
18.10.2017 23:00:00 9,4 4,6 24 13 32 17 NW 1016,7 50 0,0
18.10.2017 22:00:00 8,7 5,3 17 9 40 22 WNW 1016,5 50 0,0
18.10.2017 21:00:00 9,3 5,1 28 15 40 22 NW 1015,9 50 0,0
18.10.2017 20:00:00 9,7 5,5 25 14 37 20 NW 1015,4 50 0,0
18.10.2017 19:00:00 9,6 5,2 22 12 36 20 WNW 1015,1 50 0,0
18.10.2017 18:00:00 9,9 5,1 22 12 36 20 WNW 1014,5 50 0,0
18.10.2017 17:00:00 10,4 4,5 24 13 35 19 WNW 1013,9 50 0,0
18.10.2017 16:00:00 10,6 4,7 23 12 34 18 WNW 1013,3 50 0,0
18.10.2017 15:00:00 10,4 4,5 24 13 32 17 WNW 1013,1 48 0,0
18.10.2017 14:00:00 9,9 4,7 23 12 32 17 WNW 1012,8 43 0,0
18.10.2017 13:00:00 9,3 5,3 19 10 27 15 WNW 1012,4 50 0,0
18.10.2017 12:00:00 8,7 5,1 16 9 36 19 WNW 1011,9 47 0,0
18.10.2017 11:00:00 8,6 5,5 21 11 36 19 NW 1011,3 47 0,0
18.10.2017 10:00:00 8,3 5,8 16 9 34 19 NNW 1010,4 46 0,0
18.10.2017 09:00:00 8,1 6,2 16 9 44 24 N 1009,1 50 0,0
18.10.2017 08:00:00 8,2 7,0 25 13 44 24 N 1007,9 50 0,0
18.10.2017 07:00:00 9,1 7,7 26 14 55 30 N 1006,1 50 0,2
18.10.2017 06:00:00 11,4 11,2 33 18 60 33 W 1004,5 39 0,0
18.10.2017 05:00:00 11,2 11,0 48 26 60 33 W 1003,8 4,2 0,0
18.10.2017 04:00:00 11,6 11,4 44 24 63 34 WSW 1003,5 20 0,0
18.10.2017 03:00:00 11,5 11,3 44 24 63 34 WSW 1003,6 11 0,0
18.10.2017 02:00:00 12,6 9,2 40 22 51 28 WSW 1003,6 25 0,0
18.10.2017 01:00:00 12,6 9,2 34 18 51 28 WSW 1003,9 23 0,0
18.10.2017 00:00:00 12,8 9,2 36 20 54 29 WSW 1004,2 22 0,0
17.10.2017 23:00:00 12,6 9,8 33 18 56 30 WSW 1004,4 22 0,0
17.10.2017 22:00:00 12,8 9,4 40 22 56 31 WSW 1004,7 25 0,0
17.10.2017 21:00:00 13,1 9,2 43 23 56 31 WSW 1005,0 32 0,0
17.10.2017 20:00:00 12,9 9,7 39 21 53 28 WSW 1005,2 37 0,0
17.10.2017 19:00:00 12,9 9,9 29 16 48 26 WSW 1005,7 24 0,0
17.10.2017 18:00:00 13,1 9,7 30 16 53 29 WSW 1006,3 26 0,0
17.10.2017 17:00:00 13,3 9,5 34 18 54 29 WSW 1006,5 24 0,0
17.10.2017 16:00:00 13,8 9,4 38 20 55 30 WSW 1006,6 17 0,0
17.10.2017 15:00:00 13,4 13,2 40 22 55 30 SW 1006,7 8 0,0
17.10.2017 14:00:00 12,4 12,2 37 20 54 29 SW 1006,8 2,6 0,0
17.10.2017 13:00:00 12,2 12,0 36 19 51 27 SW 1007,5 0,5 0,0
17.10.2017 12:00:00 12,6 12,4 35 19 51 27 SSW 1008,5 4,2 0,0
17.10.2017 11:00:00 12,5 12,3 35 19 50 27 SSW 1009,6 9 0,0
17.10.2017 10:00:00 11,7 11,5 28 15 40 22 S 1010,3 24 0,0
17.10.2017 09:00:00 11,3 11,1 29 16 37 20 S 1011,9 28 0,0
17.10.2017 08:00:00 11,2 11,0 23 12 27 15 S 1012,0 25 0,1
17.10.2017 07:00:00 11,3 11,1 16 9 18 10 SSE 1014,0 36 0,0
17.10.2017 06:00:00 11,0 10,5 3 1 14 7 SSW 1015,7 40 0,0
17.10.2017 05:00:00 11,2 10,3 4 2 18 10 WNW 1015,8 33 0,0
17.10.2017 04:00:00 11,3 10,0 10 5 22 12 WNW 1016,0 37 0,0
17.10.2017 03:00:00 11,4 10,1 14 7 22 12 WNW 1016,0 40 0,0
17.10.2017 02:00:00 11,6 10,5 13 7 23 13 W 1015,7 31 0,0
17.10.2017 01:00:00 11,5 10,7 13 7 26 14 W 1015,7 27 0,0
17.10.2017 00:00:00 11,8 10,2 21 11 25 14 W 1015,9 29 0,0
16.10.2017 23:00:00 11,8 11,2 14 8 26 14 W 1015,8 24 0,0
16.10.2017 22:00:00 12,3 10,5 17 9 27 15 W 1015,3 23 0,0
16.10.2017 21:00:00 12,4 11,0 18 10 27 15 W 1015,5 25 0,0
16.10.2017 20:00:00 12,6 11,2 20 11 29 16 W 1015,1 29 0,0
16.10.2017 19:00:00 13,1 10,6 22 12 29 16 W 1014,4 33 0,0
16.10.2017 18:00:00 13,4 10,6 22 12 32 17 W 1013,8 32 0,0
16.10.2017 17:00:00 13,6 10,8 21 11 32 17 W 1012,8 31 0,0

tt = Température de l'air
td = dewpoint
ff = Vitesse du vent
fx = gusts
dd = Direction du vent
ppp = reduced air pressure
vv = visibility
rr = Quantités de précipitations

stations d'obs. à proximité